Roanoke Regional Woodrum Field
KROA : now visible

Airfield :











YOU CAN JOIN US ON...

 
LOGIN :

Register | Disclaimer

   EN    FR    IT 

 









Legend :    VFR   Marginal VFR   IFR   Intensive IFR   Very Intensive IFR
Visi :
Ceiling :
>= 8 km
>= 3000ft
5 to 8 km
1000 to 3000 ft
1500m to 5 km
500 to 1000 ft
800 to 1500m
200 to 500 ft
< 800m
< 200 ft
Symbols :   Thunderstorms  Fog  Heavy snow  Heavy precipitations  Wind > 20 kt






- Airport Elevation : 1175 ft
- IATA code : ROA


KROA - Roanoke Regional Woodrum Field

CURRENT METAR :
  • 050654Z 00000KT 10SM CLR 18/13 A3016 RMK AO2 SLP203 T01830133

EXPIRED METARs :
  • 050554Z 00000KT 10SM CLR 19/13 A3016 RMK AO2 SLP202 T01940133 10256 20189 50002
  • 050454Z 31003KT 10SM CLR 20/13 A3017 RMK AO2 SLP205 T02000133 402940183

TAF KROA
Valid from the 05 at 06:00 until the 06 at 06:00 UTC


050539Z 0506/0606 VRB03KT P6SM FEW050 SCT120
FM051600 13004KT P6SM BKN050
FM052200 16005KT P6SM SCT060 BKN150
FM060200 VRB03KT P6SM FEW150
KZDC FIR / North America



MET'MAP, your aeronautical weather chart ! - Copyright ORBIFLY December 2007 - Disclaimer

ORBIFLY MET'MAP TEAM :

Programming & Development : Alexandra Zaïnal
Concept & original design : Baudouin d'Aumeries
Assistance for programming : Marc-Olivier Méhu
Technical & hardware support : Manuel Goepfert

Contact : metmap@orbifly.com




SOURCES & CREDITS :

   NOAA       Earth
Advisory